(16) Psyche
ephemeris date magn radius delta ra dec elong phase
Today14 Feb 202511.52.547 AU3.401 AU23h28m-04°42'25.7°9.7°
Opposition7 Dec 20259.72.670 AU1.687 AU05h01m+18°00'175.2°1.8°
(16) Psyche - 2025-02-14
astro.vanbuitenen.nl


 
-1 year
-1 month
-1 day
Now
+1 day
+1 month
+1 year

The interactive orbit chart above shows the body's path through the solar system and its position at the given date. Green and blue lines are shown perpendicular to the ecliptic plane: Green if the path is above the ecliptic plane, blue if it is below. (Left-click and drag to rotate the view; Right-click and drag to move the view; Use scroll wheel to zoom in our out.)

The orbital elements of Psyche are:

            e (Eccentricity)                : 0.1341243
            a (Semimajor axis)              : 2.9224681
            i (Inclination)                 : 3.09723
            Ω (Longitude of ascending node) : 150.01900
            ω (Argument of perihelion)      : 229.58879
            M (Mean anomaly)                : 321.86559
            Epoch                           : 2024 Oct 17

            L (Longitude of perihelion)     : 199.56644
            B (Latitude of perihelion)      : -2.35778
            P (Orbital period in years)     : 5.00            
        

The light curve chart below shows the estimated development of the minor planet's magnitude.


The all-sky chart below shows the path of the minor planet over the same period as the light curve. The current position is marked yellow.





The following chart shows the path of the minor planet in the next few days. The field of view is optimized for (~10x50) binoculars and finderscopes. A more printer-friendly version of the same chart can be found below.




Ephemerides:
Date       Time       RA (2000)    DEC (2000)    delta   radius  elong  phase   PA    magn
2025-02-14 00:00 UT   23 28 16.9   -04 42 18     3.401    2.547   25.7    9.7    69   11.5 
2025-02-14 14:59 UT   23 29 19.7   -04 35 52     3.404    2.547   25.3    9.6    69   11.5 
2025-02-15 00:00 UT   23 29 57.5   -04 31 59     3.406    2.547   25.1    9.5    69   11.5 
2025-02-16 00:00 UT   23 31 38.2   -04 21 39     3.411    2.546   24.6    9.3    69   11.5 
2025-02-17 00:00 UT   23 33 19.1   -04 11 18     3.416    2.546   24.0    9.1    69   11.5 
2025-02-18 00:00 UT   23 35 00.0   -04 00 55     3.421    2.545   23.5    8.9    69   11.5 
2025-02-19 00:00 UT   23 36 41.0   -03 50 31     3.426    2.545   22.9    8.7    70   11.5 
2025-02-20 00:00 UT   23 38 22.2   -03 40 05     3.431    2.544   22.4    8.5    70   11.5 
2025-02-21 00:00 UT   23 40 03.4   -03 29 38     3.435    2.544   21.8    8.3    70   11.5 
2025-02-22 00:00 UT   23 41 44.7   -03 19 10     3.440    2.544   21.3    8.1    70   11.5 
2025-02-23 00:00 UT   23 43 26.1   -03 08 41     3.444    2.543   20.7    7.9    70   11.5 
2025-02-24 00:00 UT   23 45 07.7   -02 58 10     3.449    2.543   20.2    7.7    70   11.5 
2025-02-25 00:00 UT   23 46 49.3   -02 47 39     3.453    2.542   19.6    7.5    70   11.5 
2025-02-26 00:00 UT   23 48 30.9   -02 37 06     3.457    2.542   19.1    7.3    70   11.5 
2025-02-27 00:00 UT   23 50 12.7   -02 26 32     3.461    2.542   18.5    7.1    70   11.4 
2025-02-28 00:00 UT   23 51 54.6   -02 15 58     3.465    2.541   18.0    6.9    71   11.4 
2025-03-01 00:00 UT   23 53 36.5   -02 05 23     3.469    2.541   17.4    6.7    71   11.4 
2025-03-02 00:00 UT   23 55 18.5   -01 54 47     3.472    2.541   16.9    6.5    71   11.4 
2025-03-03 00:00 UT   23 57 00.6   -01 44 11     3.476    2.540   16.4    6.3    71   11.4 
2025-03-04 00:00 UT   23 58 42.7   -01 33 33     3.479    2.540   15.8    6.1    71   11.4 


    Terminology:
            
    delta:  distance between minor planet and earth in AU
    radius: distance between minor planet and sun in AU
    magn:   magnitude (brightness) estimate    
    ra:     right ascension in hours (24h = 360deg)
    dec:    declination in degrees
    elong:  elongation in degrees (angle sun-earth-minor planet)    
    phase:  phase angle in degrees (angle sun-minor planet-earth)        
    AU:     Astronomical Unit (mean distance between earth and sun: 149597870.7 km
    

Orbital elements provided by the MPC (Minor Planet Center).
Calculations by a modified version of AAPlus, a C# implementation of the AA+ project by PJ Naughter from the algorithms presented in the book "Astronomical Algorithms" by Jean Meeus.
NGC2000 dso catalog and star labels from VizieR as provided by the Strasbourg astronomical Data Center.
Tycho2 catalog from the ESO archive.